Last 24 Hours

Squaw-Belmont 8000'

Hourly Data | America/Los_Angeles
as of 2/18/20 8:54 AM PST
Date & Time Temp (°F) RH (%) Dew Pt (°F) Wet Bulb (°F) Wind Dir (°) Wind Spd (mph) Wind Gust (mph) WindChill (°F) Latest Rain (In) New Snow (in) SnowDepth (in) Daily Min Temp (°F) Daily Max Temp (°F) Daily Rain (In)
2/18/20 - 0800 30.0 30 2.2 21.9 SW | 224 7.6 13.2 21.5 0.00 0.2 89.0 20.8 30.3 0.00
2/18/20 - 0700 27.6 32 1.8 20.2 SW | 220 7.1 12.6 20.2 0.00 0.3 89.1 20.8 29.9 0.00
2/18/20 - 0600 27.7 35 3.6 20.6 SSW | 213 6.8 12.3 21.4 0.00 0.3 89.1 20.8 29.9 0.00
2/18/20 - 0500 28.4 32 2.6 20.9 SSW | 212 4.4 9.5 23.5 0.00 0.3 89.1 20.8 29.9 0.00
2/18/20 - 0400 28.2 38 5.6 21.3 SSW | 212 5.0 11.2 23.8 0.00 0.2 89.1 20.8 29.9 0.00
2/18/20 - 0300 28.8 35 4.4 21.5 SSW | 201 4.1 11.3 22.2 0.00 0.2 89.1 20.8 29.3 0.00
2/18/20 - 0200 23.1 61 11.5 19.4 SW | 227 2.0 5.5 21.4 0.00 0.2 89.2 20.8 23.3 0.00
2/18/20 - 0100 22.1 59 9.8 18.4 N | 356 0.9 2.6 21.8 0.00 0.2 89.1 20.8 22.4 0.00
2/18/20 - 0000 21.4 57 8.3 17.5 NNW | 347 0.7 2.7 21.3 0.00 0.2 89.2 21.0 37.1 0.00
2/17/20 - 2300 21.4 55 7.6 17.3 S | 180 0.7 3.1 22.7 0.00 0.3 89.2 21.4 37.1 0.00
2/17/20 - 2200 24.0 49 7.5 19.0 SSW | 211 0.4 1.8 24.1 0.00 0.3 89.2 22.2 37.1 0.00
2/17/20 - 2100 24.8 35 0.8 18.3 SW | 226 1.0 4.2 24.9 0.00 0.3 89.2 22.2 37.1 0.00
2/17/20 - 2000 26.3 29 -1.4 18.8 E | 88 0.8 2.8 26.4 0.00 0.2 89.2 22.2 37.1 0.00
2/17/20 - 1900 27.6 29 -0.4 19.9 E | 97 1.3 4.4 27.9 0.00 0.2 89.2 22.2 37.1 0.00
2/17/20 - 1800 28.1 25 -2.9 19.9 NE | 55 1.8 5.9 29.5 0.00 0.3 89.2 22.2 37.1 0.00
2/17/20 - 1700 33.4 22 -1.1 23.4 NE | 46 2.2 5.0 33.3 0.00 0.2 89.3 22.2 37.1 0.00
2/17/20 - 1600 35.2 18 -4.4 24.1 NE | 49 3.3 10.5 33.5 0.00 0.3 89.3 22.2 37.1 0.00
2/17/20 - 1500 36.0 19 -1.7 24.9 NE | 40 3.1 14.9 34.6 0.00 0.2 89.3 22.2 37.1 0.00
2/17/20 - 1400 36.0 26 4.2 25.9 ESE | 112 2.4 7.6 35.0 0.00 0.3 89.4 22.2 37.1 0.00
2/17/20 - 1300 35.4 29 6.6 26.0 NE | 35 4.1 12.4 32.3 0.00 0.3 89.4 22.2 36.1 0.00
2/17/20 - 1200 34.7 24 1.3 24.6 ENE | 60 5.1 13.0 29.2 0.00 0.2 89.4 22.2 35.4 0.00
2/17/20 - 1100 32.2 26 1.4 23.0 ENE | 58 5.6 13.0 26.2 0.00 0.2 89.4 22.2 32.6 0.00
2/17/20 - 1000 30.4 33 5.0 22.6 ENE | 74 5.7 12.9 23.0 0.00 0.2 89.5 22.2 30.5 0.00
2/17/20 - 0900 27.3 38 5.3 20.7 ENE | 75 5.9 13.0 21.4 0.00 0.2 89.5 22.2 28.1 0.00
2/17/20 - 0800 27.8 29 -0.1 20.1 E | 97 2.9 8.2 23.7 0.00 0.2 89.4 22.2 28.0 0.00
Max 36.0 61 11.5 26.0 - 7.6 14.9 35.0 0.00 0.3 89.5 22.2 37.1 0.00
Avg 28.7 35 3.1 21.2 - 3.4 8.6 25.8 0.00 0.2 89.2 - - -
Min 21.4 18 -4.4 17.3 - 0.4 1.8 20.2 0.00 0.2 89.0 20.8 22.4 0.00
Total - - - - - - - - 0.00 - - - - -